Date,TemperatureHighF,TemperatureAvgF,TemperatureLowF,DewpointHighF,DewpointAvgF,DewpointLowF,HumidityHigh,HumidityAvg,HumidityLow,PressureMaxIn,PressureMinIn,WindSpeedMaxMPH,WindSpeedAvgMPH,GustSpeedMaxMPH,PrecipitationSumIn
2013-9-1,85.8,74.5,67.6,73.1,68.9,65.7,95,83,63,29.82,29.71,16,0,19,0.08
2013-9-2,85.8,70.7,65.7,73.4,66.9,62.4,95,89,64,29.78,29.60,16,1,16,1.87
2013-9-3,67.3,64.3,61.1,64.4,58.9,55.6,95,83,68,29.89,29.74,14,2,14,0.00
2013-9-4,78.5,67.8,57.3,60.1,56.7,52.1,88,69,44,29.97,29.89,16,3,18,0.00
2013-9-5,69.5,60.9,51.3,61.7,50.2,42.5,89,70,44,30.19,29.90,15,1,18,0.00
2013-9-6,71.8,56.9,45.2,49.8,45.6,39.1,90,69,39,30.28,30.10,10,1,10,0.00
2013-9-7,70.3,61.9,56.3,59.6,53.3,46.6,94,74,48,30.10,29.86,9,1,9,0.40
2013-9-8,65.8,60.2,48.8,61.5,51.6,42.1,95,75,46,30.11,29.82,15,1,15,0.28
2013-9-9,79.1,60.9,46.8,59.4,49.2,42.8,87,68,37,30.19,30.00,8,1,9,0.00
2013-9-10,90.7,76.3,66.4,76.5,68.2,57.1,94,77,62,30.08,29.91,13,2,13,0.36
2013-9-11,93.5,80.7,0.0,74.9,71.6,67.3,88,74,50,30.01,29.86,13,2,13,0.09
2013-9-12,78.0,70.8,64.2,69.5,66.4,61.2,93,86,71,29.87,29.68,10,1,10,0.33
2013-9-13,64.3,56.1,49.3,61.3,53.5,47.4,94,91,82,29.97,29.66,13,2,13,0.14
2013-9-14,59.2,51.7,47.5,49.5,47.1,44.6,95,85,63,30.14,29.96,12,2,14,0.05
2013-9-15,68.1,57.0,46.8,55.2,48.7,43.0,90,75,43,30.17,30.04,13,1,14,0.00
2013-9-16,59.9,53.3,43.0,54.2,49.8,40.8,93,88,72,30.35,30.06,14,1,14,0.06
2013-9-17,67.9,50.3,38.6,50.1,43.0,36.9,94,78,49,30.50,30.33,6,2,6,0.00
2013-9-18,77.6,60.2,48.7,52.7,47.2,42.8,83,65,38,30.32,30.12,8,5,8,0.00
2013-9-19,80.3,64.5,53.4,61.6,52.7,46.5,78,66,51,30.13,30.01,8,4,8,0.00
2013-9-20,82.5,69.5,58.9,62.0,57.8,51.4,85,67,49,30.02,29.83,8,4,9,0.00
2013-9-21,71.9,64.7,58.4,61.8,58.9,57.0,95,82,69,29.83,29.56,17,3,18,0.79
2013-9-22,58.7,53.9,51.1,57.3,47.7,41.4,95,80,59,29.97,29.63,20,4,20,0.05
2013-9-23,54.4,49.1,45.3,44.2,43.1,41.4,91,80,64,30.12,29.99,12,2,12,0.00
2013-9-24,63.1,50.8,41.5,47.9,44.3,39.6,94,80,55,30.13,30.00,10,1,14,0.00
2013-9-25,70.0,55.0,44.4,52.6,46.7,42.3,94,76,43,30.01,29.93,8,1,8,0.00
2013-9-26,71.3,57.0,47.0,55.9,50.4,44.8,94,80,56,30.13,29.99,7,1,7,0.00
2013-9-27,71.4,57.3,47.9,55.7,51.0,46.3,94,81,53,30.26,30.12,6,0,6,0.00
2013-9-28,77.3,60.1,47.1,56.8,51.2,45.1,94,75,44,30.32,30.20,11,1,11,0.00
2013-9-29,75.5,64.0,52.4,54.0,51.2,48.0,86,65,43,30.20,30.03,8,2,8,0.00
2013-9-30,77.3,63.9,54.6,59.0,52.9,49.1,83,68,48,30.03,29.94,6,1,6,0.00